Lexington, NE

11:20 AM CDT on March 28, 2017 (GMT -0500)
Kelly

Weather History for KLXN - July, 2013

Change the Weather History Date:

Wednesday, July 24, 2013

  Actual Average Record
Temperature  
Mean Temperature 72 °F -  
Max Temperature 88 °F 84 °F 101 °F (2012)
Min Temperature 57 °F 62 °F 55 °F (2004)
Cooling Degree Days 8    
Growing Degree Days 22 (Base 50)    
Moisture  
Dew Point 62 °F    
Average Humidity 71    
Maximum Humidity 97    
Minimum Humidity 38    
Precipitation  
Precipitation 0.00 in - - ()
Sea Level Pressure  
Sea Level Pressure 30.10 in    
Wind  
Wind Speed 3 mph (South)    
Max Wind Speed 12 mph    
Max Gust Speed -    
Visibility 7 miles    
Events Fog , Thunderstorm    
Averages and records for this station are not official NWS values.
T = Trace of Precipitation, MM = Missing Value Source: NWS Daily Summary

Daily Weather History Graph

Daily Weather History Graph

Search for Another Location

Airport or City:

Trip Planner

Search our weather history database for the weather conditions in past years. The results will help you decide how hot, cold, wet, or windy it might be!

Date:

Astronomy

Jul. 24, 2013 Rise Set
Actual Time 6:28 AM CDT 9:02 PM CDT
Civil Twilight 5:56 AM CDT 9:33 PM CDT
Nautical Twilight 5:17 AM CDT 10:12 PM CDT
Astronomical Twilight 4:33 AM CDT 10:56 PM CDT
Moon 10:07 PM CDT (7/24) 8:51 AM CDT (7/24)
Length of Visible Light 15h 36m
Length of Day
14h 33m
Waning Gibbous, 94% of the Moon is Illuminated
Jul 24
Waning Gibbous
Jul 29
Last Quarter
Aug 6
New
Aug 14
First Quarter
Aug 20
Full

Hourly Weather History & Observations

Time (CDT) Temp. Heat Index Dew Point Humidity Pressure Visibility Wind Dir Wind Speed Gust Speed Precip Events Conditions
12:15 AM 68.2 °F - 63.5 °F 85% 30.06 in 10.0 mi East 4.6 mph - N/A   Clear
12:35 AM 65.7 °F - 62.6 °F 90% 30.07 in 10.0 mi ENE 3.5 mph - N/A   Clear
12:55 AM 65.7 °F - 63.0 °F 91% 30.07 in 10.0 mi Calm Calm - N/A   Clear
1:15 AM 63.9 °F - 61.9 °F 93% 30.09 in 7.0 mi Calm Calm - N/A   Clear
1:35 AM 63.7 °F - 61.5 °F 93% 30.10 in 7.0 mi Calm Calm - N/A   Clear
1:55 AM 63.5 °F - 61.7 °F 94% 30.11 in 7.0 mi Calm Calm - N/A   Clear
2:15 AM 63.0 °F - 60.8 °F 93% 30.11 in 7.0 mi Calm Calm - N/A   Clear
2:35 AM 62.6 °F - 60.4 °F 93% 30.11 in 7.0 mi Calm Calm - N/A   Clear
2:55 AM 61.3 °F - 59.4 °F 93% 30.11 in 7.0 mi Calm Calm - N/A   Clear
3:15 AM 61.2 °F - 59.4 °F 94% 30.11 in 5.0 mi Calm Calm - N/A   Clear
3:35 AM 60.8 °F - 59.2 °F 94% 30.11 in 3.0 mi North 4.6 mph - N/A   Clear
3:55 AM 60.4 °F - 59.0 °F 95% 30.11 in 2.5 mi Calm Calm - N/A   Clear
4:15 AM 60.4 °F - 59.2 °F 96% 30.11 in 2.0 mi Calm Calm - N/A   Clear
4:35 AM 59.7 °F - 58.5 °F 96% 30.11 in 4.0 mi Calm Calm - N/A   Clear
4:55 AM 59.2 °F - 58.1 °F 96% 30.11 in 3.0 mi WSW 3.5 mph - N/A   Clear
5:15 AM 59.0 °F - 57.7 °F 96% 30.11 in 4.0 mi Calm Calm - N/A   Clear
5:35 AM 58.3 °F - 57.0 °F 96% 30.11 in 2.5 mi Calm Calm - N/A   Clear
5:55 AM 58.1 °F - 56.8 °F 96% 30.11 in 2.0 mi Calm Calm - N/A   Clear
6:15 AM 57.9 °F - 56.8 °F 96% 30.12 in 1.2 mi North 3.5 mph - N/A   Scattered Clouds
6:35 AM 57.7 °F - 56.7 °F 96% 30.12 in 0.2 mi WNW 3.5 mph - N/A Fog Fog
6:55 AM 57.9 °F - 56.7 °F 96% 30.14 in 0.2 mi Calm Calm - N/A Fog Fog
7:15 AM 58.8 °F - 57.6 °F 96% 30.14 in 0.2 mi NE 3.5 mph - N/A Fog Fog
7:35 AM 59.7 °F - 58.8 °F 97% 30.14 in 0.2 mi Calm Calm - N/A Fog Fog
7:55 AM 60.4 °F - 59.5 °F 97% 30.14 in 0.2 mi Calm Calm - N/A Fog Fog
8:15 AM 61.9 °F - 61.0 °F 97% 30.14 in 0.2 mi Calm Calm - N/A Fog Fog
8:35 AM 63.3 °F - 62.4 °F 97% 30.15 in 1.5 mi Calm Calm - N/A   Mostly Cloudy
8:55 AM 64.2 °F - 63.3 °F 97% 30.15 in 1.5 mi NNE 3.5 mph - N/A   Scattered Clouds
9:15 AM 65.3 °F - 64.4 °F 97% 30.15 in 4.0 mi Calm Calm - N/A   Scattered Clouds
9:35 AM 66.4 °F - 65.3 °F 96% 30.15 in 4.0 mi WSW 3.5 mph - N/A   Scattered Clouds
9:55 AM 67.3 °F - 65.8 °F 95% 30.16 in 5.0 mi WSW 3.5 mph - N/A   Clear
10:15 AM 68.4 °F - 66.4 °F 93% 30.16 in 7.0 mi SSW 3.5 mph - N/A   Clear
10:35 AM 73.9 °F - 64.9 °F 73% 30.16 in 10.0 mi SW 5.8 mph - N/A   Clear
10:55 AM 74.3 °F - 63.9 °F 70% 30.16 in 10.0 mi SSW 3.5 mph - N/A   Clear
11:15 AM 76.1 °F - 64.6 °F 67% 30.16 in 10.0 mi SW 6.9 mph - N/A   Scattered Clouds
11:35 AM 77.7 °F - 64.0 °F 63% 30.15 in 10.0 mi SSW 6.9 mph - N/A   Scattered Clouds
11:55 AM 77.9 °F - 63.0 °F 60% 30.15 in 10.0 mi WSW 5.8 mph - N/A   Scattered Clouds
12:15 PM 79.7 °F - 61.9 °F 54% 30.14 in 10.0 mi SSW 9.2 mph - N/A   Clear
12:35 PM 79.7 °F - 61.0 °F 53% 30.14 in 10.0 mi Calm Calm - N/A   Clear
12:55 PM 81.1 °F 81.8 °F 60.3 °F 49% 30.13 in 10.0 mi WSW 6.9 mph - N/A   Clear
1:15 PM 82.0 °F 82.4 °F 60.1 °F 47% 30.13 in 10.0 mi West 5.8 mph - N/A   Clear
1:35 PM 82.8 °F 82.7 °F 59.0 °F 44% 30.13 in 10.0 mi WSW 3.5 mph - N/A   Clear
1:55 PM 83.3 °F 83.2 °F 59.0 °F 44% 30.12 in 10.0 mi Calm Calm - N/A   Clear
2:15 PM 84.2 °F 84.0 °F 59.5 °F 43% 30.11 in 10.0 mi Calm Calm - N/A   Clear
2:35 PM 85.1 °F 85.0 °F 60.3 °F 43% 30.11 in 10.0 mi WSW 3.5 mph - N/A   Clear
2:55 PM 85.8 °F 85.7 °F 60.4 °F 42% 30.10 in 10.0 mi SSE 6.9 mph - N/A   Clear
3:15 PM 85.8 °F 85.7 °F 60.1 °F 42% 30.09 in 10.0 mi Calm Calm - N/A   Clear
3:35 PM 86.5 °F 86.1 °F 59.9 °F 40% 30.08 in 10.0 mi SE 8.1 mph - N/A   Clear
3:55 PM 88.0 °F 87.6 °F 60.4 °F 39% 30.08 in 10.0 mi SW 6.9 mph - N/A   Clear
4:15 PM 87.4 °F 87.2 °F 60.4 °F 40% 30.07 in 10.0 mi South 8.1 mph - N/A   Clear
4:35 PM 87.1 °F 86.7 °F 59.9 °F 40% 30.06 in 10.0 mi Calm Calm - N/A   Clear
4:55 PM 86.7 °F 86.5 °F 60.6 °F 41% 30.06 in 10.0 mi South 4.6 mph - N/A   Clear
5:15 PM 87.4 °F 86.9 °F 59.5 °F 39% 30.06 in 10.0 mi Calm Calm - N/A   Clear
5:35 PM 87.6 °F 86.9 °F 59.2 °F 38% 30.06 in 10.0 mi West 3.5 mph - N/A   Clear
5:55 PM 86.2 °F 86.1 °F 60.4 °F 42% 30.05 in 10.0 mi Calm Calm - N/A   Clear
6:15 PM 86.0 °F 85.7 °F 59.5 °F 41% 30.05 in 10.0 mi SSE 3.5 mph - N/A   Clear
6:35 PM 85.8 °F 85.4 °F 59.7 °F 41% 30.04 in 10.0 mi Calm Calm - N/A   Clear
6:55 PM 85.3 °F 85.0 °F 59.7 °F 42% 30.04 in 10.0 mi South 5.8 mph - N/A   Clear
7:15 PM 84.4 °F 84.8 °F 61.3 °F 46% 30.04 in 10.0 mi SSE 4.6 mph - N/A   Clear
7:35 PM 82.6 °F 84.3 °F 65.1 °F 55% 30.03 in 10.0 mi SE 8.1 mph - N/A   Clear
7:55 PM 81.7 °F 83.5 °F 65.3 °F 57% 30.03 in 10.0 mi SE 8.1 mph - N/A   Clear
8:15 PM 81.5 °F 83.3 °F 64.9 °F 57% 30.03 in 10.0 mi SE 8.1 mph - N/A   Scattered Clouds
8:35 PM 80.6 °F 82.4 °F 65.3 °F 59% 30.04 in 10.0 mi SSE 11.5 mph - N/A   Mostly Cloudy
8:55 PM 79.5 °F - 65.3 °F 62% 30.05 in 10.0 mi SE 8.1 mph - N/A   Overcast
9:15 PM 78.6 °F - 65.7 °F 64% 30.05 in 10.0 mi SSE 10.4 mph - N/A   Mostly Cloudy
9:35 PM 77.4 °F - 65.8 °F 67% 30.05 in 10.0 mi SSE 8.1 mph - N/A   Scattered Clouds
9:55 PM 77.2 °F - 66.2 °F 69% 30.06 in 10.0 mi SE 6.9 mph - N/A   Clear
10:15 PM 76.1 °F - 66.2 °F 71% 30.06 in 10.0 mi SE 6.9 mph - N/A   Scattered Clouds
10:35 PM 76.3 °F - 65.3 °F 69% 30.05 in 10.0 mi SE 8.1 mph - N/A   Clear
10:55 PM 75.4 °F - 64.9 °F 70% 30.06 in 10.0 mi SSE 8.1 mph - N/A   Clear
11:15 PM 75.2 °F - 64.4 °F 69% 30.06 in 10.0 mi SSE 6.9 mph - N/A   Clear
11:35 PM 74.8 °F - 64.4 °F 70% 30.07 in 10.0 mi South 4.6 mph - N/A   Scattered Clouds
11:55 PM 74.5 °F - 64.6 °F 71% 30.08 in 10.0 mi ESE 3.5 mph - N/A Thunderstorm Mostly Cloudy